Regional Weather Roundup
Issued by NWS

Home | Current Version | Previous Version | Graphics & Text | Print | Product List | Glossary On
Versions: 1 2 3 4 5 6 7 8 9 10 11 12 13 14 15 16 17 18 19 20 21 22 23 24 25 26 27 28 29 30 31 32 33 34 35 36 37 38 39 40 41 42 43 44 45 46 47 48 49 50
000
ASUS43 KLOT 230806
RWRIL

ILLINOIS REGIONAL WEATHER ROUNDUP
NATIONAL WEATHER SERVICE CHICAGO/ROMEOVILLE IL
200 AM CST SUN NOV 23 2014

NOTE: "FAIR" INDICATES FEW OR NO CLOUDS BELOW 12,000 FEET WITH NO
SIGNIFICANT WEATHER AND/OR OBSTRUCTIONS TO VISIBILITY.

* THESE STATIONS ARE NOT UNDER NWS QUALITY CONTROL. THEY ALSO MAY NOT
  REPORT WEATHER SUCH AS PRECIPITATION OR FOG.

ILZ001-002-007-009-015-016-024-230900-
NORTHWEST ILLINOIS

CITY           SKY/WX    TMP DP  RH WIND       PRES   REMARKS
MOLINE         CLOUDY    53  48  83 S10       29.72F
STERLING*      CLOUDY    50  46  87 MISG      29.76F
SAVANNA*       CLOUDY    49  47  93 S8        29.73F FOG
$$

ILZ003-004-008-010-011-017-018-230900-
NORTH CENTRAL ILLINOIS

CITY           SKY/WX    TMP DP  RH WIND       PRES   REMARKS
ROCKFORD       CLOUDY    48  46  93 S12       29.79F FOG
FREEPORT*      CLOUDY    47  46  97 S12       29.76F FOG
ROCHELLE*      CLOUDY    47  47  99 S14       29.79S FOG
DE KALB*       CLOUDY    47  46  97 S14       29.80S
PERU*          CLOUDY    52  48  88 S13       29.79F
$$

ILZ005-006-012>014-019>023-230900-
NORTHEAST ILLINOIS

CITY           SKY/WX    TMP DP  RH WIND       PRES   REMARKS
CHICAGO-OHARE  CLOUDY    50  46  86 S16       29.81F
CHICAGO-MIDWAY CLOUDY    51  47  86 S13       29.83F
AURORA         CLOUDY    51  46  83 S10       29.81S HAZE
LANSING*       CLOUDY    48  46  90 S10       29.86S
JOLIET*        CLOUDY    49  46  88 S8        29.83F
WAUKEGAN       CLOUDY    50  47  89 S17       29.78F
DUPAGE AIRPORT CLOUDY    50  46  86 S10       29.81S
KANKAKEE*      CLOUDY    48  46  93 S6        29.86F
WHEELING       CLOUDY    51  47  86 S13       29.82F
MORRIS*        CLOUDY    49  47  93 S7        29.81F
ROMEOVILLE*    CLOUDY    49  46  87 S12       29.83S
NORTHERLY ISL    N/A     51  45  79 SW14        N/A
$$

LMZ740>746-230900-
SOUTHERN LAKE MICHIGAN

STATION/POSITION SKY/WX   TEMP    WIND        PRES    VSBY  WAVE
                          AIR SEA DIR/SP/G                  HT/PER
                          (F)     (DEG/KT/KT) (MB)    (MI)  (FT/S)
SOUTHERN BUOY              46 43  180/ 17/ 19 1009.8F         3/ 4
WAUKEGAN HARBOR            51     220/ 15/ 24   N/A
HARRISON CRIB              50     190/ 28/ 32   N/A
BURNHAM HARBOR             51     200/ 13/ 17   N/A
CALUMET HARBOR             50     180/  8/ 15 1009.4S
MICHIGAN CITY              50     170/ 14/ 20   N/A
$$

ILZ025>027-034>036-040-047-049-050-058-095>099-230900-
WEST-CENTRAL ILLINOIS

CITY           SKY/WX    TMP DP  RH WIND       PRES   REMARKS
QUINCY         MOCLDY    51  47  86 S9        29.75F
GALESBURG*     CLOUDY    52  48  89 S13G20    29.75F
MACOMB*        MOCLDY    51  48  90 S12       29.77F
JACKSONVILLE*  MOCLDY    52  48  86 S7        29.79F
PITTSFIELD*    MOCLDY    51  47  87 S9        29.78F
$$

ILZ028>032-037-038-041>044-048-051>054-059>061-230900-
CENTRAL ILLINOIS

CITY           SKY/WX    TMP DP  RH WIND       PRES   REMARKS
PONTIAC        CLOUDY    50  47  91 S13       29.84F
BLOOMINGTON    MOCLDY    48  46  93 S13       29.84F
DECATUR        CLOUDY    51  44  77 S8        29.85S
PEORIA         CLOUDY    52  47  83 S10       29.79F
LACON*         CLOUDY    52  47  84 S9G20     29.78F
LINCOLN*       CLOUDY    49  46  87 S6        29.82F
SPRINGFIELD    MOCLDY    52  46  80 S14       29.81F
TAYLORVILLE    CLOUDY    50  43  76 S13       29.83F
$$

ILZ033-039-045-046-055>057-062-063-230900-
EAST-CENTRAL ILLINOIS

CITY           SKY/WX    TMP DP  RH WIND       PRES   REMARKS
CHAMPAIGN      CLOUDY    49  43  80 S10       29.87S
DANVILLE*      CLOUDY    47  44  91 SE7       29.87S
RANTOUL*       CLOUDY    48  45  88 S9        29.87S
MATTOON        CLOUDY    50  40  68 S12       29.87F
PARIS*         CLOUDY    49  43  81 S12       29.90S
$$

ILZ079-100>102-230900-
SOUTHWEST ILLINOIS

CITY           SKY/WX    TMP DP  RH WIND       PRES   REMARKS
ALTON          CLOUDY    53  44  73 SE8       29.83F
BELLEVILLE     CLOUDY    52  43  72 S9        29.83F
CAHOKIA*       MOCLDY    54  44  69 S8        29.82F
SPARTA*        CLEAR     53  42  66 S12       29.87F
$$

ILZ064>066-069>071-074>076-080>082-084>086-088>090-092>094-230900-
SOUTH-CENTRAL ILLINOIS

CITY           SKY/WX    TMP DP  RH WIND       PRES   REMARKS
CARBONDALE     CLEAR     52  40  63 S9        29.89F
CAIRO*         MOCLDY    57  45  64 S10       29.90S
EFFINGHAM*     CLOUDY    53  37  55 S8        29.89F
MARION         CLEAR     54  41  62 SE6       29.91F
MT. VERNON     PTCLDY    52  37  58 S7        29.90F
CENTRALIA*     PTCLDY    52  39  61 S12       29.87F
SALEM*           N/A     56  41  56 S9G16     29.88F
METROPOLIS*    CLEAR     51  43  75 SE3       29.91F
$$

ILZ067-068-072-073-078-083-087-091-230900-
SOUTHEAST ILLINOIS

CITY           SKY/WX    TMP DP  RH WIND       PRES   REMARKS
LAWRENCEVILLE  PTCLDY    48  38  68 S12       29.95S
FLORA*         PTCLDY    49  38  65 S9        29.91F
FAIRFIELD*     PTCLDY    48  37  67 SE6       29.91F
HARRISBURG*    CLEAR     47  39  75 SE5       29.93F
ROBINSON*      MOCLDY    50  37  61 S10       29.94S
CARMI*         CLEAR     46  40  79 SE9       29.92F
$$

ABBREVIATIONS USED IN REMARKS
   TC - TEMPERATURE IN CELSIUS
  WCI - WIND CHILL INDEX
   HX - HEAT INDEX
  VSB - VISIBILITY
$$




USA.gov is the U.S. government's official web portal to all federal, state and local government web resources and services.